COSMOS 1867 COOLANT

Satellite information

Favourite Embed

Satellite Type and Status

DEBRISIN ORBIT

Key statistics

Satellite COSMOS 1867 COOLANT at a glance.

Uptime

13991

Days in orbit

Revolutions

≈ 14.3

Per day

Orbit

LEO

Low Earth Orbit

Inclination

65.0

Latest

Satellite identification and parameters

Extended collection of information and parameters for COSMOS 1867 COOLANT.

Object identification

Identified? True

Debris? False

Object name: COSMOS 1867 COOLANT

International designator: 1987-060M

Object number (NORAD): 39644

Object ID (CCSDS): 39644

Country: COMMONWEALTH OF INDEPENDENT STATES (CIS)

Current information (Y/N): Y

RCS size: SMALL

Orbital parameters

Period: 100.38 minutes

Inclination: 65.0087 deg

SMA: 7154.706 km

Apoapsis: 786.954 km

Periapsis: 766.187 km

RAAN: 293.6498 deg

Eccentricy: 0.00145133

Argument of periapsis: 272.6939 deg

Mean anomaly: 87.2486 deg

Mean motion: 14.34548079 rev/day

Mean motion (dot): 0.00000718 rev/day2

B* drag term: 0.00028904064 1/REarth

Two-line elements (TLE)

Creation date: Oct. 28, 2025, 7:11 p.m.

Reference frame: TEME

Reference center: EARTH

Epoch: Oct. 28, 2025, 9:07 a.m. UTC

TLE line 0: 0 COSMOS 1867 COOLANT

TLE line 1: 1 39644U 87060M 25301.38034123 .00000718 00000-0 28904-3 0 9994

TLE line 2: 2 39644 65.0087 293.6498 0014513 272.6939 87.2486 14.34548079604557

Live tracking on map

Real-time ground track for satellite COSMOS 1867 COOLANT.

In-orbit conjunctions

A list of the most updated potential collisions computed for object COSMOS 1867 COOLANT.

Target Orbit TCA Probability of collision Miss distance Type
CZ-6A DEB LEO 2024-10-02 11:51:59 0.0002526773 607.0 (m) DEBRIS
THORAD AGENA D DEB SSO 2024-09-26 15:24:51 0.000164149 893.0 (m) DEBRIS

Associated space launch

Nuclear-powered magnetospheric research satellite

COSMOS 1867 COOLANT was lifted into orbit during the mission ‘Tsiklon-2 | Plasma-A 2’, on board a Tsiklon-2 space rocket.

The launch took place on July 10, 1987, 3:35 p.m. from 90.

For more information about the launch, click the button.

Launch to space Tsiklon-2 | Plasma-A 2
Tsiklon-2 | Plasma-A 2

Agency: N/A

Status: Launch Successful

Launch date: July 10, 1987, 3:35 p.m. UTC

Rocket: Tsiklon-2

Launch pad: 90

Location: Baikonur Cosmodrome, Republic of Kazakhstan

...

Latest news about this satellite

There are no fresh news available about this satellite. Check back as we update our databases every day.


Newsletter sign-up

Weekly statistics, charts and insights to help you stay on top of the space industry.